This is the latest recevied weather packets stored in our database for station/object WC4PEM-9. If no packets are shown the sender has not sent any weather packets the latest 1 day(s).
| Time | Temp. | Humidity | Pressure | Rain* | Wind** | Luminosity | Snow |
|---|---|---|---|---|---|---|---|
| 1777977208 | 15° C | 94% | 1014.6 hPa | 0 mm | 0.45 m/s, 137° | - | - |
| 1777976908 | 15° C | 94% | 1014.6 hPa | 0 mm | 0.45 m/s, 103° | - | - |
| 1777976896 | 15° C | 94% | 1014.4 hPa | 0 mm | 0.45 m/s, 126° | - | - |
| 1777976608 | 15° C | 94% | 1014.4 hPa | 0 mm | 0.45 m/s, 126° | - | - |
| 1777976308 | 15° C | 94% | 1014.3 hPa | 0 mm | 0.45 m/s, 51° | - | - |
| 1777976065 | 15.56° C | 94% | 1014.4 hPa | 0 mm | 0.45 m/s, 309° | - | - |
| 1777976008 | 15° C | 94% | 1014.4 hPa | 0 mm | 0.45 m/s, 9° | - | - |
| 1777975708 | 15.56° C | 94% | 1014.4 hPa | 0 mm | 0.45 m/s, 309° | - | - |
| 1777975408 | 15.56° C | 94% | 1014.5 hPa | 0 mm | 0.45 m/s, 9° | - | - |
| 1777975108 | 15.56° C | 94% | 1014.3 hPa | 0 mm | 0.45 m/s, 34° | - | - |
| 1777974808 | 15.56° C | 94% | 1014.4 hPa | 0 mm | 0.45 m/s, 334° | - | - |
| 1777974758 | 15.56° C | 94% | 1014.3 hPa | 0 mm | 0.45 m/s, 9° | - | - |
| 1777974508 | 15.56° C | 94% | 1014.3 hPa | 0 mm | 0.45 m/s, 9° | - | - |
| 1777974441 | 15.56° C | 94% | 1014.1 hPa | 0 mm | 0.45 m/s, 309° | - | - |
| 1777974218 | 15.56° C | 94% | 1014.1 hPa | 0 mm | 0.45 m/s, 51° | - | - |
| 1777974208 | 15.56° C | 94% | 1014.1 hPa | 0 mm | 0.45 m/s, 309° | - | - |
| 1777973908 | 15.56° C | 94% | 1014.1 hPa | 0 mm | 0.45 m/s, 51° | - | - |
| 1777973608 | 15.56° C | 94% | 1014 hPa | 0 mm | 0.45 m/s, 26° | - | - |
| 1777973308 | 15.56° C | 94% | 1014.1 hPa | 0 mm | 0.45 m/s, 9° | - | - |
| 1777973008 | 15.56° C | 94% | 1014.1 hPa | 0 mm | 0.45 m/s, 51° | - | - |
| 1777972954 | 15.56° C | 94% | 1014.1 hPa | 0 mm | 0.45 m/s, 265° | - | - |
| 1777972810 | 15.56° C | 94% | 1014.2 hPa | 0 mm | 0.45 m/s, 51° | - | - |
| 1777972709 | 15.56° C | 94% | 1014.1 hPa | 0 mm | 0.45 m/s, 265° | - | - |
| 1777972408 | 15.56° C | 94% | 1014.2 hPa | 0 mm | 0.45 m/s, 51° | - | - |
| 1777972214 | 15.56° C | 94% | 1014.4 hPa | 0 mm | 0.45 m/s, 309° | - | - |
* Rain latest hour (hover to see other rain measurements)
** Current wind speed in m/s (hover to see current wind gust speed)